LHX9HE EDDM-LEMG

Flight info

Callsign LHX9HE
Flight time 3h 21m
Altitude 39000
Route TURBU7S/26L TURBU Y107 TOBSO DCT BAKOR DCT GEKBA DCT VAMTU DCT KOLON DCT GANGU DCT PADKO DCT DIVKO DCT NILDU DCT NENDA N975 BCN M985 VIBAS
Aircraft A20N/M-SDE2E3FGHIRWXY/LB1

Departure

Time 2026-05-04 09:02
Airport Munich Airport (EDDM)

Arrival

Time 2026-05-04 12:23
Airport Málaga-Costa del Sol Airport (LEMG)
Time Latitude Longitude Altitude Speed Heading
2026-05-04 08:44 48.35744 11.79930 1488 ft 0 kts 263°
2026-05-04 08:51 48.35747 11.79963 1477 ft 4 kts 261°
2026-05-04 08:52 48.35752 11.80003 1480 ft 4 kts 255°
2026-05-04 08:52 48.35761 11.80041 1479 ft 4 kts 238°
2026-05-04 08:52 48.35777 11.80065 1478 ft 4 kts 184°
2026-05-04 08:52 48.35781 11.80066 1478 ft 1 kts 174°
2026-05-04 08:57 48.35773 11.79546 1488 ft 15 kts 204°
2026-05-04 09:01 48.34455 11.80127 1488 ft 30 kts 265°
2026-05-04 09:01 48.34406 11.79474 1476 ft 97 kts 263°
2026-05-04 09:01 48.34303 11.78116 1490 ft 166 kts 264°
2026-05-04 09:01 48.34109 11.76251 1924 ft 184 kts 263°
2026-05-04 09:02 48.33970 11.74346 2682 ft 186 kts 265°
2026-05-04 09:02 48.33736 11.72323 3062 ft 208 kts 248°
2026-05-04 09:02 48.32754 11.70707 3358 ft 225 kts 205°
2026-05-04 09:02 48.31333 11.70270 3546 ft 247 kts 178°
2026-05-04 09:03 48.30648 11.70290 3711 ft 254 kts 176°
2026-05-04 09:03 48.28888 11.70639 4367 ft 263 kts 159°
2026-05-04 09:03 48.27271 11.71987 5278 ft 264 kts 145°
2026-05-04 09:03 48.26279 11.73031 5899 ft 265 kts 144°
2026-05-04 09:04 48.25394 11.73987 6455 ft 265 kts 145°
2026-05-04 09:04 48.23886 11.75603 7300 ft 268 kts 146°
2026-05-04 09:04 48.22344 11.77222 8173 ft 272 kts 146°
2026-05-04 09:04 48.20768 11.78849 9022 ft 277 kts 147°
2026-05-04 09:05 48.19167 11.80487 9879 ft 281 kts 147°
2026-05-04 09:05 48.17436 11.81864 10499 ft 289 kts 167°
2026-05-04 09:05 48.15379 11.82041 10839 ft 306 kts 185°
2026-05-04 09:05 48.13187 11.81751 11182 ft 326 kts 186°
2026-05-04 09:06 48.10859 11.81450 11539 ft 344 kts 185°
2026-05-04 09:07 47.94803 11.90055 15037 ft 383 kts 141°
2026-05-04 09:08 47.92821 11.92719 15035 ft 384 kts 141°
2026-05-04 09:08 47.90645 11.94959 15030 ft 379 kts 159°
2026-05-04 09:08 47.88113 11.95889 15039 ft 374 kts 176°
2026-05-04 09:08 47.85525 11.95932 15037 ft 373 kts 184°
2026-05-04 09:09 47.83149 11.95646 15040 ft 373 kts 187°
2026-05-04 09:09 47.80568 11.95255 15030 ft 373 kts 187°
2026-05-04 09:09 47.77978 11.94916 15030 ft 374 kts 186°
2026-05-04 09:10 47.77115 11.94825 15038 ft 374 kts 185°
2026-05-04 09:10 47.74696 11.94627 15031 ft 374 kts 184°
2026-05-04 09:10 47.72092 11.94495 15031 ft 374 kts 183°
2026-05-04 09:10 47.69521 11.94420 15030 ft 374 kts 182°
2026-05-04 09:11 47.66909 11.94374 15030 ft 375 kts 182°
2026-05-04 09:11 47.64300 11.94338 15027 ft 376 kts 182°
2026-05-04 09:11 47.61688 11.94304 15034 ft 375 kts 182°
2026-05-04 09:11 47.59069 11.94269 15320 ft 378 kts 182°
2026-05-04 09:12 47.56425 11.94232 16027 ft 381 kts 182°
2026-05-04 09:12 47.53769 11.94190 16830 ft 382 kts 182°
2026-05-04 09:14 47.34589 11.92447 20813 ft 409 kts 189°
2026-05-04 09:14 47.31768 11.91836 21338 ft 412 kts 190°
2026-05-04 09:14 47.28917 11.91223 21869 ft 416 kts 189°
2026-05-04 09:14 47.26049 11.90622 22449 ft 418 kts 189°
2026-05-04 09:15 47.23153 11.90028 22894 ft 423 kts 190°
2026-05-04 09:15 47.20222 11.89435 23339 ft 428 kts 189°
2026-05-04 09:15 47.17248 11.88842 23806 ft 432 kts 189°
2026-05-04 09:15 47.14270 11.88253 24290 ft 433 kts 189°
2026-05-04 09:17 46.89956 11.82146 27262 ft 456 kts 194°
2026-05-04 09:18 46.86817 11.81103 27626 ft 458 kts 194°
2026-05-04 09:18 46.83743 11.80097 28074 ft 458 kts 194°
2026-05-04 09:18 46.80638 11.79096 28626 ft 456 kts 194°
2026-05-04 09:18 46.77542 11.78109 29123 ft 455 kts 194°
2026-05-04 09:19 46.74457 11.77132 29657 ft 453 kts 194°
2026-05-04 09:19 46.71383 11.76163 30129 ft 452 kts 194°
2026-05-04 09:19 46.68318 11.75197 30534 ft 450 kts 194°
2026-05-04 09:19 46.65262 11.74233 30969 ft 448 kts 194°
2026-05-04 09:20 46.62224 11.73257 31409 ft 445 kts 197°
2026-05-04 09:20 46.60813 11.72586 31574 ft 442 kts 206°
2026-05-04 09:20 46.59248 11.71392 31780 ft 439 kts 215°
2026-05-04 09:21 46.57231 11.68920 32112 ft 435 kts 229°
2026-05-04 09:21 46.56441 11.67570 32300 ft 433 kts 232°
2026-05-04 09:21 46.54719 11.64007 32739 ft 429 kts 237°
2026-05-04 09:21 46.53122 11.60345 33102 ft 428 kts 238°
2026-05-04 09:22 46.51508 11.56727 33394 ft 428 kts 236°
2026-05-04 09:22 46.49815 11.53180 33756 ft 426 kts 234°
2026-05-04 09:22 46.48058 11.49735 34106 ft 424 kts 233°
2026-05-04 09:22 46.46248 11.46353 34354 ft 424 kts 232°
2026-05-04 09:23 46.44406 11.43014 34596 ft 424 kts 232°
2026-05-04 09:23 46.42549 11.39699 34825 ft 423 kts 231°
2026-05-04 09:23 46.40689 11.36394 35034 ft 424 kts 231°
2026-05-04 09:23 46.38824 11.33084 35273 ft 424 kts 231°
2026-05-04 09:25 46.27983 11.13797 36529 ft 423 kts 231°
2026-05-04 09:26 46.26219 11.10664 36702 ft 423 kts 231°
2026-05-04 09:26 46.25406 11.09222 36785 ft 423 kts 231°
2026-05-04 09:26 46.22780 11.04569 37036 ft 423 kts 231°
2026-05-04 09:27 46.20923 11.01283 37210 ft 423 kts 231°
2026-05-04 09:27 46.19063 10.97997 37380 ft 422 kts 231°
2026-05-04 09:27 46.18124 10.96338 37450 ft 423 kts 231°
2026-05-04 09:28 46.15859 10.92343 37660 ft 422 kts 231°
2026-05-04 09:28 46.13999 10.89069 37835 ft 422 kts 231°
2026-05-04 09:28 46.12139 10.85798 37994 ft 422 kts 231°
2026-05-04 09:29 46.10284 10.82536 38144 ft 422 kts 231°
2026-05-04 09:29 46.08420 10.79265 38278 ft 421 kts 231°
2026-05-04 09:29 46.06563 10.76006 38417 ft 421 kts 231°
2026-05-04 09:29 46.04707 10.72756 38624 ft 419 kts 231°
2026-05-04 09:30 46.02856 10.69519 38759 ft 418 kts 231°
2026-05-04 09:30 46.01007 10.66289 38872 ft 417 kts 231°
2026-05-04 09:30 45.97306 10.59836 38942 ft 420 kts 231°
2026-05-04 09:31 45.94216 10.54457 39122 ft 419 kts 231°
2026-05-04 09:31 45.90488 10.47984 39160 ft 423 kts 231°
2026-05-04 09:32 45.86734 10.41478 39153 ft 423 kts 231°
2026-05-04 09:34 45.77011 10.24702 39133 ft 424 kts 231°
2026-05-04 09:34 45.73234 10.18212 39130 ft 424 kts 231°
2026-05-04 09:35 45.69452 10.11730 39111 ft 424 kts 231°
2026-05-04 09:35 45.66905 10.07372 39121 ft 424 kts 231°
2026-05-04 09:37 45.53208 9.84054 39125 ft 423 kts 231°
2026-05-04 09:38 45.49416 9.77633 39127 ft 423 kts 231°
2026-05-04 09:38 45.45620 9.71220 39183 ft 423 kts 231°
2026-05-04 09:39 45.41831 9.64833 39187 ft 422 kts 231°
2026-05-04 09:39 45.38039 9.58454 39182 ft 422 kts 231°
2026-05-04 09:40 45.34240 9.52079 39172 ft 422 kts 231°
2026-05-04 09:40 45.30442 9.45721 39160 ft 422 kts 231°
2026-05-04 09:42 45.15220 9.20380 39128 ft 418 kts 231°
2026-05-04 09:43 45.11445 9.14132 39126 ft 417 kts 231°
2026-05-04 09:43 45.07669 9.07895 39130 ft 417 kts 231°
2026-05-04 09:44 45.03893 9.01672 39129 ft 417 kts 231°
2026-05-04 09:46 44.88809 8.76948 39134 ft 415 kts 230°
2026-05-04 09:46 44.85035 8.70796 39119 ft 414 kts 230°
2026-05-04 09:47 44.81260 8.64657 39128 ft 414 kts 230°
2026-05-04 09:49 44.66173 8.40251 39129 ft 414 kts 230°
2026-05-04 09:51 44.52899 8.18951 39124 ft 414 kts 230°
2026-05-04 09:51 44.49102 8.12888 39125 ft 414 kts 230°
2026-05-04 09:52 44.45303 8.06834 39125 ft 414 kts 230°
2026-05-04 09:52 44.41520 8.00820 39120 ft 414 kts 230°
2026-05-04 09:53 44.37687 7.94738 39128 ft 414 kts 230°
2026-05-04 09:53 44.33890 7.88726 39119 ft 412 kts 230°
2026-05-04 09:54 44.30130 7.82787 39112 ft 410 kts 230°
2026-05-04 09:54 44.26270 7.76928 39128 ft 411 kts 226°
2026-05-04 09:55 44.22058 7.71548 39130 ft 411 kts 223°
2026-05-04 09:55 44.17732 7.66333 39104 ft 411 kts 223°
2026-05-04 09:56 44.13521 7.60956 39120 ft 409 kts 228°
2026-05-04 09:56 44.09735 7.55076 39115 ft 406 kts 231°
2026-05-04 09:57 44.06089 7.49098 39123 ft 405 kts 231°
2026-05-04 09:57 44.02424 7.43148 39117 ft 405 kts 231°
2026-05-04 09:58 43.98732 7.37241 39092 ft 405 kts 231°
2026-05-04 09:58 43.95051 7.31392 39106 ft 403 kts 231°
2026-05-04 10:00 43.80296 7.08068 39101 ft 402 kts 231°
2026-05-04 10:02 43.69219 6.86278 39103 ft 397 kts 249°
2026-05-04 10:04 43.62226 6.61512 39095 ft 394 kts 248°
2026-05-04 10:04 43.60138 6.54519 39092 ft 394 kts 248°
2026-05-04 10:05 43.58051 6.47539 39084 ft 394 kts 248°
2026-05-04 10:05 43.55977 6.40608 39078 ft 394 kts 248°
2026-05-04 10:06 43.53873 6.33589 39071 ft 394 kts 248°
2026-05-04 10:06 43.51792 6.26668 39075 ft 394 kts 247°
2026-05-04 10:08 43.44431 6.02337 39068 ft 391 kts 247°
2026-05-04 10:08 43.42336 5.95455 39070 ft 390 kts 247°
2026-05-04 10:09 43.40237 5.88582 39053 ft 390 kts 247°
2026-05-04 10:09 43.38136 5.81716 39055 ft 390 kts 247°
2026-05-04 10:10 43.36030 5.74850 39047 ft 390 kts 247°
2026-05-04 10:10 43.33921 5.67993 39055 ft 390 kts 246°
2026-05-04 10:11 43.31808 5.61144 39031 ft 389 kts 246°
2026-05-04 10:11 43.29694 5.54307 39028 ft 389 kts 246°
2026-05-04 10:12 43.27579 5.47489 39023 ft 387 kts 246°
2026-05-04 10:12 43.25481 5.40738 39024 ft 387 kts 246°
2026-05-04 10:13 43.23368 5.33958 39025 ft 387 kts 246°
2026-05-04 10:13 43.21251 5.27183 39025 ft 386 kts 246°
2026-05-04 10:14 43.19130 5.20416 39023 ft 386 kts 246°
2026-05-04 10:16 43.10608 4.93394 39021 ft 385 kts 245°
2026-05-04 10:16 43.08473 4.86666 39012 ft 385 kts 245°
2026-05-04 10:17 43.06333 4.79941 39012 ft 385 kts 245°
2026-05-04 10:19 42.92885 4.62246 38997 ft 388 kts 223°
2026-05-04 10:19 42.90844 4.59843 38997 ft 387 kts 224°
2026-05-04 10:19 42.86825 4.55031 39000 ft 387 kts 224°
2026-05-04 10:20 42.82776 4.50151 38997 ft 389 kts 224°
2026-05-04 10:20 42.78717 4.45271 38999 ft 389 kts 224°
2026-05-04 10:21 42.74651 4.40401 38990 ft 389 kts 223°
2026-05-04 10:21 42.70583 4.35539 38990 ft 389 kts 223°
2026-05-04 10:22 42.67175 4.31475 38793 ft 388 kts 223°
2026-05-04 10:22 42.65191 4.29111 38368 ft 384 kts 223°
2026-05-04 10:22 42.63184 4.26724 37924 ft 380 kts 223°
2026-05-04 10:23 42.61207 4.24373 37500 ft 376 kts 223°
2026-05-04 10:23 42.59247 4.22044 37070 ft 373 kts 223°
2026-05-04 10:25 42.46096 4.06468 34360 ft 346 kts 223°
2026-05-04 10:25 42.44292 4.04337 33983 ft 342 kts 223°
2026-05-04 10:25 42.42503 4.02227 33550 ft 339 kts 223°
2026-05-04 10:25 42.40732 4.00139 33108 ft 337 kts 223°
2026-05-04 10:26 42.38970 3.98064 32668 ft 334 kts 223°
2026-05-04 10:26 42.37226 3.96010 32235 ft 332 kts 223°
2026-05-04 10:26 42.35489 3.93968 31810 ft 329 kts 223°
2026-05-04 10:26 42.33769 3.91947 31379 ft 327 kts 223°
2026-05-04 10:27 42.32061 3.89942 30997 ft 324 kts 223°
2026-05-04 10:27 42.30367 3.87955 30607 ft 321 kts 223°
2026-05-04 10:27 42.28699 3.85998 30213 ft 319 kts 223°
2026-05-04 10:27 42.27032 3.84043 29995 ft 316 kts 223°
2026-05-04 10:28 42.25519 3.81905 29969 ft 315 kts 230°
2026-05-04 10:28 42.22893 3.77220 29965 ft 314 kts 234°
2026-05-04 10:29 42.20421 3.72366 29969 ft 314 kts 235°
2026-05-04 10:29 42.17938 3.67528 29964 ft 314 kts 234°
2026-05-04 10:30 42.15422 3.62726 29964 ft 313 kts 234°
2026-05-04 10:30 42.12891 3.57943 29968 ft 313 kts 234°
2026-05-04 10:31 42.10354 3.53161 29966 ft 313 kts 234°
2026-05-04 10:32 42.01473 3.36464 29958 ft 313 kts 234°
2026-05-04 10:33 41.98931 3.31699 29951 ft 314 kts 234°
2026-05-04 10:33 41.96384 3.26935 29953 ft 314 kts 234°
2026-05-04 10:34 41.93856 3.22212 29923 ft 313 kts 234°
2026-05-04 10:34 41.91309 3.17462 29951 ft 313 kts 234°
2026-05-04 10:35 41.88764 3.12722 29952 ft 313 kts 234°
2026-05-04 10:35 41.86215 3.07984 29938 ft 313 kts 234°
2026-05-04 10:36 41.83670 3.03260 29951 ft 311 kts 234°
2026-05-04 10:36 41.81137 2.98566 29943 ft 310 kts 234°
2026-05-04 10:37 41.78609 2.93883 29949 ft 310 kts 234°
2026-05-04 10:37 41.76076 2.89200 29939 ft 310 kts 234°
2026-05-04 10:39 41.67164 2.72896 29932 ft 310 kts 233°
2026-05-04 10:40 41.64541 2.68378 29942 ft 310 kts 232°
2026-05-04 10:40 41.61892 2.63854 29939 ft 308 kts 232°
2026-05-04 10:41 41.59260 2.59352 29943 ft 307 kts 232°
2026-05-04 10:41 41.56630 2.54848 29948 ft 308 kts 232°
2026-05-04 10:42 41.53997 2.50341 29951 ft 307 kts 232°
2026-05-04 10:42 41.51369 2.45850 29955 ft 307 kts 232°
2026-05-04 10:43 41.48739 2.41363 29958 ft 307 kts 232°
2026-05-04 10:45 41.38215 2.23473 29963 ft 306 kts 232°
2026-05-04 10:45 41.35590 2.19027 29965 ft 305 kts 232°
2026-05-04 10:46 41.32962 2.14584 29966 ft 306 kts 232°
2026-05-04 10:46 41.30307 2.10169 29962 ft 305 kts 230°
2026-05-04 10:47 41.27504 2.05925 29959 ft 305 kts 229°
2026-05-04 10:47 41.24648 2.01742 29965 ft 305 kts 229°
2026-05-04 10:49 41.13296 1.85026 29966 ft 302 kts 229°
2026-05-04 10:50 41.10485 1.80887 29964 ft 302 kts 229°
2026-05-04 10:52 40.99220 1.64360 29977 ft 302 kts 229°
2026-05-04 10:52 40.96399 1.60235 29977 ft 302 kts 229°
2026-05-04 10:54 40.85115 1.43793 29977 ft 301 kts 228°
2026-05-04 10:56 40.73828 1.27450 29979 ft 301 kts 228°
2026-05-04 10:57 40.71001 1.23370 29975 ft 301 kts 228°
2026-05-04 10:57 40.68197 1.19324 29976 ft 301 kts 228°
2026-05-04 10:58 40.65371 1.15250 29977 ft 301 kts 227°
2026-05-04 10:58 40.62546 1.11183 29976 ft 300 kts 228°
2026-05-04 10:58 40.61135 1.09153 29976 ft 300 kts 228°
2026-05-04 10:59 40.59724 1.07125 29976 ft 300 kts 228°
2026-05-04 10:59 40.58311 1.05096 29977 ft 300 kts 228°
2026-05-04 10:59 40.56902 1.03074 29976 ft 300 kts 228°
2026-05-04 10:59 40.55489 1.01047 29981 ft 300 kts 228°
2026-05-04 11:00 40.54077 0.99025 29976 ft 300 kts 228°
2026-05-04 11:02 40.42783 0.82910 29977 ft 301 kts 227°
2026-05-04 11:05 40.21402 0.52637 29977 ft 301 kts 228°
2026-05-04 11:06 40.18547 0.48621 29976 ft 302 kts 228°
2026-05-04 11:06 40.15707 0.44629 29980 ft 301 kts 227°
2026-05-04 11:10 39.95665 0.16598 29976 ft 301 kts 227°
2026-05-04 11:12 39.84195 0.00662 29973 ft 302 kts 227°
2026-05-04 11:12 39.81321 -0.03318 29969 ft 302 kts 227°
2026-05-04 11:13 39.78441 -0.07299 29972 ft 302 kts 228°
2026-05-04 11:13 39.75576 -0.11256 29971 ft 303 kts 228°
2026-05-04 11:14 39.73154 -0.14595 29967 ft 303 kts 228°
2026-05-04 11:16 39.61579 -0.30506 29966 ft 303 kts 227°
2026-05-04 11:16 39.58682 -0.34476 29967 ft 303 kts 227°
2026-05-04 11:17 39.55782 -0.38445 29968 ft 304 kts 227°
2026-05-04 11:19 39.44674 -0.54846 29960 ft 303 kts 233°
2026-05-04 11:19 39.42149 -0.59220 29972 ft 303 kts 233°
2026-05-04 11:20 39.39613 -0.63581 29963 ft 303 kts 233°
2026-05-04 11:20 39.37064 -0.67930 29968 ft 304 kts 233°
2026-05-04 11:22 39.26847 -0.85259 29968 ft 303 kts 233°
2026-05-04 11:23 39.24294 -0.89576 29981 ft 303 kts 233°
2026-05-04 11:25 39.15347 -1.04662 29975 ft 303 kts 233°
2026-05-04 11:25 39.12800 -1.08941 29983 ft 303 kts 233°
2026-05-04 11:27 39.01263 -1.28257 29992 ft 301 kts 233°
2026-05-04 11:28 38.98724 -1.32495 29990 ft 301 kts 233°
2026-05-04 11:28 38.96163 -1.36761 29991 ft 301 kts 233°
2026-05-04 11:29 38.93602 -1.41023 29992 ft 301 kts 233°
2026-05-04 11:29 38.91038 -1.45283 29993 ft 301 kts 233°
2026-05-04 11:31 38.82149 -1.60011 27272 ft 308 kts 232°
2026-05-04 11:33 38.71885 -1.76932 23621 ft 319 kts 232°
2026-05-04 11:33 38.70559 -1.79110 23453 ft 310 kts 232°
2026-05-04 11:33 38.69237 -1.81281 23284 ft 301 kts 232°
2026-05-04 11:34 38.67970 -1.83359 23116 ft 292 kts 232°
2026-05-04 11:34 38.66734 -1.85386 22848 ft 286 kts 232°
2026-05-04 11:34 38.65518 -1.87379 22513 ft 283 kts 232°
2026-05-04 11:34 38.64329 -1.89327 22165 ft 280 kts 233°
2026-05-04 11:35 38.63133 -1.91284 21798 ft 278 kts 233°
2026-05-04 11:35 38.61947 -1.93225 21439 ft 276 kts 233°
2026-05-04 11:35 38.60770 -1.95149 21083 ft 274 kts 233°
2026-05-04 11:35 38.59601 -1.97060 20743 ft 271 kts 233°
2026-05-04 11:36 38.58443 -1.98951 20404 ft 269 kts 233°
2026-05-04 11:36 38.57292 -2.00828 20084 ft 267 kts 233°
2026-05-04 11:36 38.56156 -2.02682 19973 ft 265 kts 233°
2026-05-04 11:36 38.55017 -2.04538 19991 ft 266 kts 233°
2026-05-04 11:37 38.53875 -2.06399 19972 ft 266 kts 233°
2026-05-04 11:37 38.52734 -2.08257 19989 ft 266 kts 233°
2026-05-04 11:37 38.51591 -2.10118 19981 ft 266 kts 233°
2026-05-04 11:37 38.50450 -2.11975 19978 ft 266 kts 233°
2026-05-04 11:38 38.49307 -2.13834 19988 ft 266 kts 233°
2026-05-04 11:38 38.48166 -2.15689 19982 ft 266 kts 233°
2026-05-04 11:38 38.47022 -2.17547 19992 ft 266 kts 233°
2026-05-04 11:38 38.45877 -2.19405 19991 ft 266 kts 233°
2026-05-04 11:39 38.44733 -2.21263 19973 ft 266 kts 233°
2026-05-04 11:39 38.43589 -2.23117 19990 ft 266 kts 233°
2026-05-04 11:40 38.36715 -2.34241 19894 ft 265 kts 232°
2026-05-04 11:41 38.35525 -2.36002 19512 ft 266 kts 230°
2026-05-04 11:41 38.34270 -2.37757 19149 ft 263 kts 228°
2026-05-04 11:41 38.33034 -2.39430 18812 ft 261 kts 227°
2026-05-04 11:41 38.31783 -2.41099 18494 ft 260 kts 227°
2026-05-04 11:42 38.30536 -2.42759 18157 ft 259 kts 227°
2026-05-04 11:42 38.29295 -2.44411 17742 ft 258 kts 227°
2026-05-04 11:42 38.28058 -2.46060 17360 ft 257 kts 227°
2026-05-04 11:42 38.26823 -2.47710 16926 ft 257 kts 228°
2026-05-04 11:43 38.25594 -2.49354 16537 ft 256 kts 228°
2026-05-04 11:43 38.24372 -2.50990 16233 ft 254 kts 228°
2026-05-04 11:43 38.23156 -2.52619 15875 ft 253 kts 228°
2026-05-04 11:43 38.21946 -2.54241 15520 ft 251 kts 227°
2026-05-04 11:44 38.20757 -2.55835 15236 ft 248 kts 227°
2026-05-04 11:44 38.19569 -2.57424 15015 ft 247 kts 227°
2026-05-04 11:44 38.18382 -2.59012 15000 ft 249 kts 227°
2026-05-04 11:44 38.17184 -2.60606 14981 ft 250 kts 228°
2026-05-04 11:45 38.15987 -2.62203 14971 ft 249 kts 228°
2026-05-04 11:45 38.14797 -2.63806 14991 ft 249 kts 229°
2026-05-04 11:45 38.13610 -2.65405 14994 ft 249 kts 228°
2026-05-04 11:45 38.12420 -2.66997 14989 ft 248 kts 228°
2026-05-04 11:46 38.11227 -2.68582 14993 ft 248 kts 227°
2026-05-04 11:46 38.10035 -2.70163 14984 ft 248 kts 228°
2026-05-04 11:46 38.08843 -2.71745 14993 ft 248 kts 228°
2026-05-04 11:46 38.07650 -2.73328 14989 ft 248 kts 227°
2026-05-04 11:47 38.06464 -2.74905 14982 ft 247 kts 227°
2026-05-04 11:47 38.05276 -2.76483 14986 ft 247 kts 227°
2026-05-04 11:47 38.04090 -2.78059 14981 ft 247 kts 228°
2026-05-04 11:47 38.02899 -2.79639 14982 ft 247 kts 227°
2026-05-04 11:48 38.01714 -2.81214 14980 ft 247 kts 227°
2026-05-04 11:48 38.00527 -2.82792 14988 ft 247 kts 228°
2026-05-04 11:48 37.99356 -2.84345 14990 ft 247 kts 228°
2026-05-04 11:48 37.98172 -2.85914 14985 ft 246 kts 228°
2026-05-04 11:49 37.96986 -2.87483 14989 ft 247 kts 227°
2026-05-04 11:49 37.95799 -2.89050 14981 ft 246 kts 227°
2026-05-04 11:49 37.94613 -2.90620 14980 ft 247 kts 227°
2026-05-04 11:49 37.93426 -2.92196 14979 ft 247 kts 227°
2026-05-04 11:50 37.92237 -2.93770 14979 ft 247 kts 228°
2026-05-04 11:50 37.91048 -2.95343 14965 ft 247 kts 228°
2026-05-04 11:50 37.89859 -2.96913 14974 ft 246 kts 227°
2026-05-04 11:50 37.88672 -2.98476 14980 ft 246 kts 227°
2026-05-04 11:51 37.87485 -3.00039 14982 ft 246 kts 228°
2026-05-04 11:51 37.86300 -3.01603 14978 ft 247 kts 228°
2026-05-04 11:51 37.85113 -3.03170 14975 ft 247 kts 228°
2026-05-04 11:51 37.83924 -3.04737 14977 ft 247 kts 228°
2026-05-04 11:52 37.82734 -3.06304 14975 ft 246 kts 228°
2026-05-04 11:52 37.81546 -3.07868 14987 ft 248 kts 227°
2026-05-04 11:52 37.80354 -3.09436 14975 ft 247 kts 228°
2026-05-04 11:52 37.79161 -3.11004 14976 ft 247 kts 228°
2026-05-04 11:53 37.77969 -3.12572 14975 ft 247 kts 228°
2026-05-04 11:53 37.76777 -3.14137 14974 ft 247 kts 228°
2026-05-04 11:53 37.75585 -3.15702 14977 ft 247 kts 228°
2026-05-04 11:53 37.74392 -3.17268 14976 ft 247 kts 227°
2026-05-04 11:55 37.66034 -3.28214 14977 ft 248 kts 228°
2026-05-04 11:55 37.64836 -3.29780 14981 ft 248 kts 228°
2026-05-04 11:56 37.63639 -3.31344 14980 ft 248 kts 227°
2026-05-04 11:56 37.62436 -3.32915 14985 ft 249 kts 227°
2026-05-04 11:56 37.61251 -3.34462 14980 ft 249 kts 227°
2026-05-04 11:56 37.60050 -3.36028 14985 ft 248 kts 227°
2026-05-04 11:57 37.58849 -3.37595 14984 ft 248 kts 227°
2026-05-04 11:57 37.57649 -3.39159 14985 ft 248 kts 227°
2026-05-04 11:57 37.56449 -3.40722 14993 ft 248 kts 227°
2026-05-04 11:57 37.55247 -3.42287 14991 ft 248 kts 227°
2026-05-04 11:58 37.54048 -3.43847 14996 ft 248 kts 227°
2026-05-04 11:58 37.52852 -3.45404 14990 ft 247 kts 227°
2026-05-04 11:58 37.51654 -3.46961 14988 ft 247 kts 227°
2026-05-04 11:58 37.50460 -3.48513 14987 ft 247 kts 227°
2026-05-04 11:59 37.49266 -3.50063 14994 ft 247 kts 227°
2026-05-04 11:59 37.48070 -3.51616 14995 ft 247 kts 227°
2026-05-04 11:59 37.46874 -3.53168 14992 ft 247 kts 227°
2026-05-04 11:59 37.45678 -3.54719 14993 ft 247 kts 227°
2026-05-04 12:00 37.44481 -3.56270 14991 ft 247 kts 227°
2026-05-04 12:00 37.43287 -3.57819 14996 ft 246 kts 227°
2026-05-04 12:00 37.42094 -3.59363 14982 ft 246 kts 227°
2026-05-04 12:00 37.40899 -3.60910 14987 ft 247 kts 227°
2026-05-04 12:01 37.39694 -3.62451 14985 ft 248 kts 224°
2026-05-04 12:01 37.38172 -3.63470 15002 ft 253 kts 200°
2026-05-04 12:02 37.27650 -3.66148 14960 ft 257 kts 197°
2026-05-04 12:03 37.25890 -3.66607 14599 ft 258 kts 197°
2026-05-04 12:03 37.24137 -3.67066 14281 ft 256 kts 197°
2026-05-04 12:03 37.22397 -3.67522 13964 ft 255 kts 197°
2026-05-04 12:03 37.20683 -3.67971 13627 ft 254 kts 197°
2026-05-04 12:04 37.18958 -3.68425 13256 ft 253 kts 197°
2026-05-04 12:04 37.17236 -3.68877 12900 ft 252 kts 197°
2026-05-04 12:04 37.15528 -3.69325 12570 ft 250 kts 197°
2026-05-04 12:04 37.13830 -3.69770 12228 ft 249 kts 196°
2026-05-04 12:05 37.12136 -3.70216 11862 ft 248 kts 196°
2026-05-04 12:05 37.10445 -3.70660 11506 ft 248 kts 195°
2026-05-04 12:05 37.08759 -3.71102 11180 ft 247 kts 195°
2026-05-04 12:05 37.07082 -3.71541 10870 ft 245 kts 195°
2026-05-04 12:06 37.05415 -3.71978 10538 ft 245 kts 195°
2026-05-04 12:06 37.03750 -3.72414 10183 ft 244 kts 195°
2026-05-04 12:06 37.02648 -3.72703 10050 ft 244 kts 195°
2026-05-04 12:06 37.00990 -3.73136 10001 ft 244 kts 194°
2026-05-04 12:07 36.99326 -3.73572 9989 ft 244 kts 194°
2026-05-04 12:07 36.97665 -3.74009 9988 ft 243 kts 195°
2026-05-04 12:07 36.96014 -3.74468 9996 ft 244 kts 196°
2026-05-04 12:07 36.94356 -3.74927 9991 ft 244 kts 195°
2026-05-04 12:08 36.92695 -3.75374 9980 ft 244 kts 196°
2026-05-04 12:08 36.91037 -3.75815 9990 ft 244 kts 197°
2026-05-04 12:08 36.89377 -3.76257 9986 ft 244 kts 196°
2026-05-04 12:08 36.87717 -3.76697 9989 ft 244 kts 196°
2026-05-04 12:09 36.86056 -3.77127 9982 ft 243 kts 195°
2026-05-04 12:09 36.84398 -3.77559 9979 ft 243 kts 196°
2026-05-04 12:09 36.82738 -3.77997 9979 ft 244 kts 196°
2026-05-04 12:09 36.81077 -3.78435 9986 ft 244 kts 196°
2026-05-04 12:10 36.79411 -3.78870 9989 ft 245 kts 196°
2026-05-04 12:10 36.77745 -3.79302 9986 ft 245 kts 196°
2026-05-04 12:10 36.76077 -3.79731 9986 ft 244 kts 196°
2026-05-04 12:10 36.74412 -3.80154 9986 ft 244 kts 196°
2026-05-04 12:11 36.72749 -3.80583 9988 ft 244 kts 196°
2026-05-04 12:11 36.71137 -3.81173 9974 ft 239 kts 214°
2026-05-04 12:11 36.69947 -3.82558 9824 ft 233 kts 231°
2026-05-04 12:11 36.68977 -3.84145 9430 ft 234 kts 234°
2026-05-04 12:12 36.68016 -3.85791 9004 ft 235 kts 234°
2026-05-04 12:12 36.67046 -3.87432 8628 ft 236 kts 234°
2026-05-04 12:12 36.66064 -3.89070 8256 ft 236 kts 233°
2026-05-04 12:12 36.65075 -3.90703 7904 ft 236 kts 233°
2026-05-04 12:13 36.64084 -3.92329 7533 ft 236 kts 233°
2026-05-04 12:14 36.57111 -4.03678 5164 ft 233 kts 234°
2026-05-04 12:15 36.56125 -4.05278 4832 ft 233 kts 234°
2026-05-04 12:15 36.55140 -4.06875 4497 ft 232 kts 234°
2026-05-04 12:15 36.54163 -4.08460 4184 ft 230 kts 234°
2026-05-04 12:15 36.53191 -4.10035 3860 ft 229 kts 234°
2026-05-04 12:16 36.52223 -4.11602 3538 ft 228 kts 234°
2026-05-04 12:16 36.51257 -4.13167 3194 ft 228 kts 234°
2026-05-04 12:16 36.50298 -4.14718 3000 ft 224 kts 234°
2026-05-04 12:16 36.49349 -4.16254 2979 ft 225 kts 234°
2026-05-04 12:17 36.48395 -4.17798 2977 ft 226 kts 234°
2026-05-04 12:17 36.47451 -4.19352 2982 ft 225 kts 239°
2026-05-04 12:17 36.47033 -4.21161 2977 ft 219 kts 277°
2026-05-04 12:17 36.47659 -4.22857 2988 ft 221 kts 308°
2026-05-04 12:18 36.48735 -4.24253 2983 ft 225 kts 313°
2026-05-04 12:18 36.49898 -4.25531 2959 ft 226 kts 315°
2026-05-04 12:18 36.51025 -4.26880 2951 ft 224 kts 311°
2026-05-04 12:18 36.52071 -4.28309 2951 ft 222 kts 309°
2026-05-04 12:19 36.53095 -4.29745 2952 ft 222 kts 309°
2026-05-04 12:19 36.54116 -4.31183 2948 ft 222 kts 309°
2026-05-04 12:19 36.55138 -4.32621 2949 ft 222 kts 309°
2026-05-04 12:19 36.56161 -4.34057 2949 ft 222 kts 309°
2026-05-04 12:20 36.57190 -4.35493 2823 ft 223 kts 309°
2026-05-04 12:20 36.58224 -4.36934 2515 ft 223 kts 309°
2026-05-04 12:20 36.59254 -4.38375 2194 ft 222 kts 309°
2026-05-04 12:20 36.60280 -4.39811 1893 ft 221 kts 309°
2026-05-04 12:21 36.61297 -4.41235 1599 ft 219 kts 309°
2026-05-04 12:21 36.62309 -4.42651 1316 ft 217 kts 309°
2026-05-04 12:21 36.63286 -4.44018 1022 ft 206 kts 309°
2026-05-04 12:21 36.64200 -4.45300 776 ft 188 kts 310°
2026-05-04 12:22 36.65042 -4.46481 528 ft 181 kts 312°
2026-05-04 12:22 36.65879 -4.47654 284 ft 179 kts 313°
2026-05-04 12:22 36.66679 -4.48776 64 ft 167 kts 313°
2026-05-04 12:22 36.67392 -4.49770 52 ft 137 kts 311°
2026-05-04 12:23 36.67950 -4.50552 55 ft 106 kts 308°
2026-05-04 12:23 36.68240 -4.50962 59 ft 8 kts 313°
2026-05-04 12:23 36.68303 -4.51052 59 ft 22 kts 309°
2026-05-04 12:23 36.68410 -4.51139 62 ft 16 kts
2026-05-04 12:24 36.68506 -4.51079 55 ft 11 kts 66°
2026-05-04 12:24 36.68484 -4.51005 56 ft 13 kts 131°
2026-05-04 12:24 36.68398 -4.50884 50 ft 24 kts 131°
2026-05-04 12:24 36.68269 -4.50703 46 ft 33 kts 131°
2026-05-04 12:25 36.68104 -4.50470 46 ft 39 kts 133°
2026-05-04 12:25 36.67944 -4.50249 47 ft 41 kts 132°
2026-05-04 12:25 36.67913 -4.50206 48 ft 35 kts 132°
2026-05-04 12:26 36.67802 -4.50048 47 ft 21 kts 132°
2026-05-04 12:26 36.67734 -4.49954 46 ft 11 kts 132°
2026-05-04 12:26 36.67713 -4.49923 46 ft 4 kts 129°
2026-05-04 12:26 36.67661 -4.49853 46 ft 12 kts 132°
2026-05-04 12:27 36.67575 -4.49731 46 ft 15 kts 131°
2026-05-04 12:27 36.67597 -4.49648 45 ft 12 kts
2026-05-04 12:27 36.67649 -4.49699 45 ft 9 kts 314°
2026-05-04 12:27 36.67670 -4.49707 45 ft 1 kts 15°
2026-05-04 12:28 36.67681 -4.49703 45 ft 4 kts 19°
2026-05-04 12:28 36.67700 -4.49685 45 ft 4 kts 43°
2026-05-04 12:28 36.67718 -4.49664 45 ft 3 kts 42°
2026-05-04 12:28 36.67741 -4.49640 45 ft 5 kts 40°
2026-05-04 12:29 36.67764 -4.49614 45 ft 0 kts 42°
2026-05-04 12:29 36.67765 -4.49613 45 ft 1 kts 42°
2026-05-04 12:29 36.67767 -4.49610 43 ft 0 kts 42°